ASA759 KBOI-KSNA

Flight info

Callsign ASA759
Flight time 1h 45m
Altitude 36000
Route HYVAL REO J7 FMG/N0465F370 FRA REBRG OHSEA3
Aircraft B38M/M-SDE1FGHILORVWXY/HB1

Departure

Time 2026-05-04 21:37
Airport Boise Air Terminal/Gowen Field (KBOI)

Arrival

Time 2026-05-04 23:23
Airport John Wayne Orange County International Airport (KSNA)
Time Latitude Longitude Altitude Speed Heading
2026-05-04 21:09 43.56723 -116.22077 2884 ft 0 kts 25°
2026-05-04 21:29 43.56708 -116.22087 2884 ft 3 kts 25°
2026-05-04 21:30 43.56685 -116.22105 2884 ft 4 kts 38°
2026-05-04 21:30 43.56667 -116.22131 2884 ft 4 kts 56°
2026-05-04 21:30 43.56657 -116.22157 2884 ft 1 kts 69°
2026-05-04 21:30 43.56655 -116.22162 2884 ft 0 kts 69°
2026-05-04 21:33 43.56656 -116.22161 2884 ft 0 kts 69°
2026-05-04 21:33 43.56655 -116.22144 2884 ft 5 kts 107°
2026-05-04 21:33 43.56611 -116.22080 2884 ft 14 kts 128°
2026-05-04 21:33 43.56550 -116.21934 2883 ft 20 kts 117°
2026-05-04 21:34 43.56484 -116.21766 2883 ft 20 kts 113°
2026-05-04 21:34 43.56425 -116.21586 2883 ft 21 kts 117°
2026-05-04 21:34 43.56359 -116.21404 2884 ft 22 kts 115°
2026-05-04 21:34 43.56296 -116.21211 2884 ft 23 kts 114°
2026-05-04 21:35 43.56230 -116.21015 2884 ft 23 kts 115°
2026-05-04 21:35 43.56132 -116.20866 2884 ft 19 kts 193°
2026-05-04 21:35 43.56016 -116.20945 2883 ft 20 kts 206°
2026-05-04 21:35 43.55920 -116.21063 2883 ft 18 kts 263°
2026-05-04 21:36 43.55932 -116.21124 2883 ft 1 kts 294°
2026-05-04 21:36 43.55976 -116.21256 2883 ft 49 kts 296°
2026-05-04 21:36 43.56235 -116.22013 2883 ft 124 kts 295°
2026-05-04 21:36 43.56682 -116.23311 2939 ft 178 kts 296°
2026-05-04 21:37 43.57279 -116.25031 3432 ft 208 kts 296°
2026-05-04 21:37 43.57823 -116.26887 4488 ft 207 kts 281°
2026-05-04 21:37 43.57506 -116.28823 5260 ft 214 kts 239°
2026-05-04 21:37 43.56375 -116.30171 6030 ft 223 kts 209°
2026-05-04 21:38 43.54866 -116.30940 6545 ft 244 kts 201°
2026-05-04 21:38 43.53195 -116.31788 6961 ft 265 kts 208°
2026-05-04 21:38 43.51740 -116.33424 7435 ft 280 kts 234°
2026-05-04 21:38 43.50474 -116.35524 8168 ft 290 kts 231°
2026-05-04 21:39 43.49147 -116.37640 9094 ft 292 kts 230°
2026-05-04 21:39 43.47799 -116.39770 9929 ft 299 kts 230°
2026-05-04 21:39 43.46404 -116.41963 10540 ft 312 kts 229°
2026-05-04 21:39 43.44925 -116.44284 10944 ft 332 kts 230°
2026-05-04 21:40 43.43356 -116.46742 11336 ft 350 kts 229°
2026-05-04 21:40 43.41725 -116.49294 11888 ft 362 kts 229°
2026-05-04 21:40 43.40047 -116.51917 12433 ft 373 kts 229°
2026-05-04 21:40 43.38325 -116.54608 13172 ft 377 kts 229°
2026-05-04 21:41 43.36579 -116.57334 13866 ft 381 kts 229°
2026-05-04 21:41 43.34825 -116.60068 14624 ft 383 kts 229°
2026-05-04 21:41 43.33042 -116.62847 15237 ft 390 kts 229°
2026-05-04 21:41 43.31250 -116.65636 15969 ft 392 kts 229°
2026-05-04 21:42 43.29426 -116.68472 16551 ft 399 kts 229°
2026-05-04 21:42 43.27584 -116.71335 17254 ft 402 kts 229°
2026-05-04 21:42 43.25716 -116.74232 17890 ft 406 kts 229°
2026-05-04 21:42 43.23841 -116.77141 18423 ft 412 kts 229°
2026-05-04 21:43 43.21935 -116.80093 19007 ft 415 kts 229°
2026-05-04 21:43 43.20006 -116.83076 19459 ft 422 kts 229°
2026-05-04 21:43 43.18055 -116.86093 20058 ft 424 kts 229°
2026-05-04 21:43 43.16088 -116.89131 20582 ft 428 kts 229°
2026-05-04 21:44 43.14107 -116.92199 21093 ft 433 kts 230°
2026-05-04 21:44 43.12243 -116.95465 21649 ft 435 kts 233°
2026-05-04 21:44 43.10384 -116.98747 22118 ft 440 kts 232°
2026-05-04 21:44 43.08500 -117.02040 22666 ft 443 kts 232°
2026-05-04 21:45 43.06584 -117.05373 23167 ft 447 kts 232°
2026-05-04 21:45 43.04658 -117.08718 23625 ft 450 kts 232°
2026-05-04 21:45 43.02954 -117.11674 23995 ft 453 kts 232°
2026-05-04 21:45 43.01026 -117.15015 24415 ft 456 kts 232°
2026-05-04 21:46 42.99054 -117.18427 24803 ft 459 kts 232°
2026-05-04 21:46 42.97066 -117.21863 25185 ft 463 kts 232°
2026-05-04 21:46 42.95063 -117.25320 25587 ft 466 kts 232°
2026-05-04 21:46 42.93054 -117.28785 25971 ft 469 kts 232°
2026-05-04 21:47 42.91022 -117.32284 26333 ft 473 kts 232°
2026-05-04 21:47 42.88974 -117.35807 26664 ft 477 kts 232°
2026-05-04 21:47 42.86903 -117.39367 27046 ft 480 kts 232°
2026-05-04 21:47 42.84820 -117.42941 27396 ft 483 kts 232°
2026-05-04 21:48 42.82719 -117.46543 27744 ft 487 kts 232°
2026-05-04 21:48 42.80606 -117.50161 28110 ft 489 kts 232°
2026-05-04 21:48 42.78475 -117.53803 28448 ft 493 kts 232°
2026-05-04 21:48 42.76345 -117.57442 28797 ft 496 kts 232°
2026-05-04 21:49 42.74184 -117.61128 29095 ft 500 kts 232°
2026-05-04 21:49 42.72009 -117.64833 29434 ft 502 kts 232°
2026-05-04 21:49 42.69823 -117.68553 29786 ft 505 kts 232°
2026-05-04 21:49 42.67619 -117.72298 30094 ft 508 kts 232°
2026-05-04 21:50 42.65412 -117.76044 30431 ft 509 kts 232°
2026-05-04 21:50 42.63193 -117.79806 30825 ft 509 kts 232°
2026-05-04 21:50 42.60976 -117.83513 31199 ft 509 kts 228°
2026-05-04 21:50 42.58340 -117.86705 31574 ft 506 kts 211°
2026-05-04 21:51 42.55263 -117.88962 32008 ft 502 kts 203°
2026-05-04 21:51 42.52101 -117.91004 32303 ft 504 kts 202°
2026-05-04 21:51 42.48933 -117.93004 32716 ft 503 kts 202°
2026-05-04 21:51 42.45757 -117.94974 33121 ft 502 kts 202°
2026-05-04 21:52 42.42580 -117.96923 33520 ft 501 kts 201°
2026-05-04 21:52 42.39466 -117.98829 33923 ft 499 kts 201°
2026-05-04 21:52 42.36310 -118.00758 34300 ft 497 kts 201°
2026-05-04 21:52 42.33167 -118.02676 34645 ft 496 kts 201°
2026-05-04 21:53 42.30023 -118.04592 34976 ft 495 kts 202°
2026-05-04 21:53 42.26892 -118.06498 35308 ft 493 kts 202°
2026-05-04 21:53 42.23771 -118.08396 35629 ft 492 kts 202°
2026-05-04 21:53 42.20643 -118.10296 35816 ft 493 kts 202°
2026-05-04 21:54 42.17540 -118.12178 35812 ft 492 kts 202°
2026-05-04 21:54 42.11330 -118.15941 35801 ft 488 kts 202°
2026-05-04 21:55 42.05131 -118.19689 35791 ft 489 kts 202°
2026-05-04 21:55 41.99370 -118.23164 35786 ft 489 kts 202°
2026-05-04 21:56 41.93300 -118.26819 35807 ft 487 kts 202°
2026-05-04 21:56 41.87148 -118.30515 35783 ft 483 kts 202°
2026-05-04 21:57 41.81012 -118.34193 35774 ft 483 kts 202°
2026-05-04 21:57 41.74872 -118.37867 35775 ft 483 kts 202°
2026-05-04 21:58 41.68745 -118.41525 35773 ft 483 kts 202°
2026-05-04 21:58 41.62623 -118.45172 35767 ft 482 kts 202°
2026-05-04 21:59 41.56491 -118.48818 35762 ft 482 kts 202°
2026-05-04 21:59 41.50365 -118.52452 35758 ft 482 kts 202°
2026-05-04 22:00 41.44253 -118.56070 35754 ft 480 kts 201°
2026-05-04 22:00 41.38140 -118.59683 35757 ft 481 kts 201°
2026-05-04 22:01 41.32023 -118.63289 35750 ft 481 kts 201°
2026-05-04 22:01 41.25926 -118.66877 35761 ft 480 kts 201°
2026-05-04 22:02 41.19812 -118.70467 35731 ft 480 kts 201°
2026-05-04 22:02 41.13736 -118.74028 35731 ft 481 kts 201°
2026-05-04 22:03 41.07625 -118.77601 35728 ft 481 kts 201°
2026-05-04 22:03 41.01521 -118.81164 35736 ft 481 kts 201°
2026-05-04 22:04 40.95403 -118.84727 35745 ft 481 kts 201°
2026-05-04 22:04 40.89289 -118.88281 35743 ft 480 kts 201°
2026-05-04 22:05 40.83166 -118.91832 35733 ft 480 kts 201°
2026-05-04 22:05 40.77064 -118.95365 35726 ft 479 kts 201°
2026-05-04 22:06 40.70953 -118.98896 35746 ft 481 kts 201°
2026-05-04 22:06 40.64823 -119.02432 35748 ft 481 kts 201°
2026-05-04 22:07 40.58737 -119.05935 35749 ft 481 kts 201°
2026-05-04 22:07 40.52651 -119.09426 35751 ft 477 kts 201°
2026-05-04 22:08 40.46573 -119.12909 35755 ft 477 kts 201°
2026-05-04 22:08 40.40489 -119.16388 35768 ft 477 kts 201°
2026-05-04 22:09 40.34432 -119.19846 35783 ft 476 kts 201°
2026-05-04 22:09 40.28373 -119.23298 35767 ft 473 kts 201°
2026-05-04 22:10 40.22324 -119.26736 35779 ft 475 kts 201°
2026-05-04 22:10 40.16255 -119.30180 35780 ft 476 kts 201°
2026-05-04 22:11 40.10190 -119.33616 35794 ft 476 kts 201°
2026-05-04 22:11 40.05144 -119.36468 35783 ft 475 kts 201°
2026-05-04 22:12 39.98086 -119.40450 35791 ft 475 kts 201°
2026-05-04 22:12 39.92011 -119.43871 35784 ft 475 kts 201°
2026-05-04 22:13 39.86938 -119.46723 35806 ft 474 kts 201°
2026-05-04 22:13 39.80900 -119.50109 35821 ft 472 kts 201°
2026-05-04 22:14 39.74878 -119.53481 35846 ft 472 kts 201°
2026-05-04 22:14 39.68829 -119.56862 35867 ft 474 kts 201°
2026-05-04 22:15 39.62822 -119.60214 35891 ft 473 kts 201°
2026-05-04 22:15 39.56796 -119.63570 35916 ft 471 kts 201°
2026-05-04 22:15 39.53716 -119.64986 35857 ft 468 kts 189°
2026-05-04 22:16 39.50519 -119.65345 35902 ft 459 kts 177°
2026-05-04 22:16 39.44086 -119.65325 35887 ft 464 kts 178°
2026-05-04 22:17 39.37669 -119.65204 35906 ft 461 kts 177°
2026-05-04 22:17 39.31264 -119.65044 35967 ft 461 kts 177°
2026-05-04 22:18 39.24856 -119.64880 35984 ft 460 kts 177°
2026-05-04 22:18 39.18468 -119.64716 35966 ft 457 kts 178°
2026-05-04 22:19 39.12123 -119.64554 35973 ft 458 kts 177°
2026-05-04 22:19 39.05749 -119.64391 35978 ft 458 kts 177°
2026-05-04 22:20 38.99405 -119.64230 35981 ft 453 kts 179°
2026-05-04 22:20 38.93107 -119.64070 35972 ft 453 kts 179°
2026-05-04 22:21 38.86825 -119.63910 35950 ft 452 kts 179°
2026-05-04 22:21 38.80541 -119.63751 35935 ft 452 kts 179°
2026-05-04 22:22 38.74247 -119.63592 35899 ft 451 kts 179°
2026-05-04 22:22 38.68004 -119.63434 35880 ft 452 kts 179°
2026-05-04 22:23 38.61722 -119.63276 35897 ft 452 kts 179°
2026-05-04 22:23 38.55450 -119.63118 35907 ft 451 kts 179°
2026-05-04 22:24 38.49182 -119.62961 35918 ft 451 kts 179°
2026-05-04 22:24 38.42918 -119.62803 35931 ft 450 kts 180°
2026-05-04 22:25 38.36692 -119.62648 35939 ft 447 kts 180°
2026-05-04 22:25 38.30472 -119.62493 35961 ft 448 kts 180°
2026-05-04 22:26 38.24238 -119.62337 35975 ft 448 kts 180°
2026-05-04 22:26 38.18045 -119.62183 35969 ft 444 kts 181°
2026-05-04 22:27 38.11886 -119.62030 35994 ft 444 kts 181°
2026-05-04 22:27 38.05706 -119.61876 36001 ft 444 kts 181°
2026-05-04 22:28 37.99972 -119.61734 35997 ft 441 kts 181°
2026-05-04 22:28 37.93854 -119.61583 36015 ft 439 kts 181°
2026-05-04 22:29 37.87751 -119.61432 36010 ft 439 kts 181°
2026-05-04 22:29 37.81634 -119.61281 36022 ft 438 kts 182°
2026-05-04 22:30 37.75584 -119.61133 36018 ft 433 kts 182°
2026-05-04 22:30 37.69599 -119.60986 36020 ft 433 kts 182°
2026-05-04 22:31 37.63588 -119.60838 36028 ft 433 kts 182°
2026-05-04 22:31 37.57606 -119.60692 36039 ft 429 kts 183°
2026-05-04 22:32 37.51675 -119.60547 36032 ft 429 kts 183°
2026-05-04 22:32 37.45763 -119.60402 35287 ft 423 kts 183°
2026-05-04 22:32 37.42835 -119.60331 35058 ft 422 kts 183°
2026-05-04 22:33 37.39898 -119.60260 35061 ft 427 kts 184°
2026-05-04 22:33 37.33946 -119.60114 35044 ft 428 kts 184°
2026-05-04 22:34 37.27987 -119.59969 35040 ft 428 kts 183°
2026-05-04 22:34 37.22026 -119.59825 35041 ft 428 kts 184°
2026-05-04 22:35 37.16111 -119.59681 35047 ft 423 kts 184°
2026-05-04 22:35 37.10231 -119.59582 35044 ft 422 kts 186°
2026-05-04 22:36 37.04361 -119.59706 35029 ft 422 kts 186°
2026-05-04 22:36 36.98503 -119.59808 35049 ft 422 kts 186°
2026-05-04 22:37 36.92636 -119.59906 35050 ft 420 kts 186°
2026-05-04 22:37 36.86800 -119.60004 35052 ft 421 kts 186°
2026-05-04 22:38 36.80943 -119.60102 35054 ft 421 kts 186°
2026-05-04 22:38 36.75084 -119.60200 35052 ft 421 kts 186°
2026-05-04 22:39 36.69226 -119.60298 35050 ft 421 kts 186°
2026-05-04 22:39 36.63386 -119.60395 35047 ft 421 kts 186°
2026-05-04 22:40 36.57528 -119.60492 35047 ft 421 kts 186°
2026-05-04 22:40 36.51739 -119.60588 35044 ft 416 kts 187°
2026-05-04 22:41 36.45948 -119.60684 35050 ft 416 kts 187°
2026-05-04 22:41 36.40175 -119.60780 35053 ft 416 kts 187°
2026-05-04 22:42 36.34384 -119.60875 35036 ft 415 kts 187°
2026-05-04 22:42 36.28630 -119.60971 35049 ft 413 kts 187°
2026-05-04 22:43 36.22883 -119.61065 35053 ft 413 kts 187°
2026-05-04 22:43 36.17135 -119.61160 35052 ft 413 kts 187°
2026-05-04 22:44 36.11411 -119.61254 35036 ft 411 kts 188°
2026-05-04 22:44 36.05721 -119.61347 35034 ft 408 kts 188°
2026-05-04 22:45 36.00033 -119.61440 35028 ft 409 kts 188°
2026-05-04 22:45 35.91740 -119.62785 35071 ft 404 kts 195°
2026-05-04 22:46 35.86215 -119.63904 35028 ft 400 kts 195°
2026-05-04 22:46 35.80753 -119.65015 35014 ft 400 kts 195°
2026-05-04 22:47 35.75220 -119.66140 35014 ft 400 kts 195°
2026-05-04 22:47 35.69759 -119.67247 35015 ft 401 kts 195°
2026-05-04 22:48 35.66970 -119.67553 34950 ft 410 kts 184°
2026-05-04 22:48 35.64144 -119.66879 34973 ft 425 kts 169°
2026-05-04 22:48 35.58617 -119.64005 34962 ft 434 kts 166°
2026-05-04 22:49 35.53089 -119.60995 35014 ft 435 kts 165°
2026-05-04 22:49 35.47568 -119.57953 34991 ft 435 kts 165°
2026-05-04 22:50 35.42058 -119.54916 35001 ft 435 kts 165°
2026-05-04 22:50 35.36524 -119.51872 34991 ft 438 kts 165°
2026-05-04 22:51 35.30966 -119.48817 34995 ft 438 kts 165°
2026-05-04 22:51 35.25406 -119.45766 34995 ft 438 kts 165°
2026-05-04 22:52 35.19860 -119.42728 34993 ft 438 kts 165°
2026-05-04 22:52 35.14297 -119.39685 35003 ft 438 kts 165°
2026-05-04 22:53 35.08730 -119.36645 34975 ft 438 kts 165°
2026-05-04 22:53 35.03156 -119.33605 34992 ft 439 kts 165°
2026-05-04 22:54 34.97607 -119.30583 34993 ft 437 kts 165°
2026-05-04 22:54 34.92058 -119.27567 34991 ft 437 kts 165°
2026-05-04 22:55 34.86534 -119.24560 34891 ft 426 kts 166°
2026-05-04 22:55 34.83852 -119.23112 34571 ft 416 kts 167°
2026-05-04 22:55 34.81236 -119.21696 34244 ft 408 kts 167°
2026-05-04 22:56 34.78655 -119.20299 33930 ft 415 kts 167°
2026-05-04 22:56 34.75949 -119.18834 33538 ft 424 kts 167°
2026-05-04 22:56 34.73314 -119.17323 33105 ft 433 kts 163°
2026-05-04 22:56 34.70644 -119.15605 32366 ft 435 kts 163°
2026-05-04 22:57 34.67962 -119.13904 31545 ft 436 kts 164°
2026-05-04 22:57 34.65264 -119.12206 30735 ft 437 kts 164°
2026-05-04 22:57 34.62553 -119.10504 29881 ft 438 kts 164°
2026-05-04 22:57 34.59837 -119.08804 28893 ft 441 kts 163°
2026-05-04 22:58 34.57125 -119.07065 28065 ft 442 kts 162°
2026-05-04 22:58 34.54423 -119.05316 27586 ft 434 kts 162°
2026-05-04 22:58 34.51825 -119.03642 27513 ft 417 kts 163°
2026-05-04 22:58 34.49311 -119.02013 27283 ft 406 kts 163°
2026-05-04 22:59 34.46848 -119.00425 27029 ft 395 kts 163°
2026-05-04 22:59 34.44451 -118.98861 26724 ft 388 kts 163°
2026-05-04 22:59 34.42081 -118.97287 26176 ft 389 kts 162°
2026-05-04 22:59 34.39714 -118.95713 25675 ft 387 kts 162°
2026-05-04 23:00 34.37341 -118.94140 25188 ft 391 kts 162°
2026-05-04 23:00 34.34945 -118.92551 24708 ft 392 kts 162°
2026-05-04 23:00 34.32554 -118.90966 24273 ft 392 kts 161°
2026-05-04 23:00 34.30181 -118.89397 23764 ft 391 kts 161°
2026-05-04 23:01 34.28567 -118.88329 23423 ft 391 kts 161°
2026-05-04 23:01 34.26218 -118.86776 22890 ft 389 kts 160°
2026-05-04 23:01 34.23822 -118.85195 22436 ft 386 kts 161°
2026-05-04 23:01 34.21388 -118.83981 21907 ft 374 kts 171°
2026-05-04 23:02 34.18916 -118.83018 21477 ft 373 kts 169°
2026-05-04 23:02 34.16458 -118.82039 21046 ft 370 kts 169°
2026-05-04 23:02 34.14020 -118.81072 20632 ft 367 kts 169°
2026-05-04 23:02 34.11607 -118.80116 20211 ft 364 kts 168°
2026-05-04 23:03 34.09210 -118.79169 19805 ft 361 kts 168°
2026-05-04 23:03 34.06834 -118.78242 19366 ft 360 kts 168°
2026-05-04 23:03 34.04454 -118.77319 18992 ft 357 kts 168°
2026-05-04 23:03 34.02097 -118.76404 18623 ft 355 kts 167°
2026-05-04 23:04 33.99752 -118.75496 18203 ft 353 kts 167°
2026-05-04 23:04 33.97417 -118.74591 17778 ft 351 kts 167°
2026-05-04 23:04 33.95139 -118.73709 17390 ft 347 kts 167°
2026-05-04 23:04 33.92819 -118.72811 16966 ft 345 kts 167°
2026-05-04 23:05 33.90614 -118.71959 16579 ft 342 kts 167°
2026-05-04 23:05 33.88446 -118.71122 16173 ft 341 kts 167°
2026-05-04 23:05 33.86200 -118.70255 15860 ft 338 kts 167°
2026-05-04 23:05 33.83962 -118.69393 15469 ft 339 kts 167°
2026-05-04 23:06 33.81723 -118.68528 15116 ft 340 kts 166°
2026-05-04 23:06 33.79470 -118.67663 14760 ft 340 kts 167°
2026-05-04 23:06 33.77211 -118.66793 14325 ft 341 kts 166°
2026-05-04 23:06 33.74966 -118.65940 13960 ft 336 kts 169°
2026-05-04 23:07 33.72671 -118.65538 13578 ft 330 kts 178°
2026-05-04 23:07 33.70394 -118.65258 13246 ft 330 kts 177°
2026-05-04 23:07 33.68110 -118.64969 12895 ft 329 kts 177°
2026-05-04 23:07 33.65847 -118.64682 12528 ft 326 kts 177°
2026-05-04 23:08 33.63636 -118.64400 12170 ft 323 kts 177°
2026-05-04 23:08 33.61418 -118.64014 11768 ft 324 kts 167°
2026-05-04 23:08 33.59439 -118.62725 11285 ft 326 kts 141°
2026-05-04 23:08 33.58129 -118.60563 10936 ft 320 kts 118°
2026-05-04 23:09 33.57181 -118.58226 10673 ft 306 kts 120°
2026-05-04 23:09 33.56227 -118.55986 10375 ft 297 kts 120°
2026-05-04 23:09 33.55291 -118.53804 10010 ft 292 kts 121°
2026-05-04 23:09 33.54365 -118.51652 9574 ft 287 kts 120°
2026-05-04 23:10 33.53459 -118.49554 9223 ft 282 kts 120°
2026-05-04 23:10 33.52565 -118.47451 8938 ft 285 kts 116°
2026-05-04 23:10 33.52142 -118.45120 8563 ft 289 kts 93°
2026-05-04 23:10 33.52084 -118.42721 8257 ft 287 kts 94°
2026-05-04 23:11 33.52015 -118.40337 7929 ft 286 kts 93°
2026-05-04 23:11 33.51949 -118.37959 7600 ft 285 kts 93°
2026-05-04 23:11 33.51885 -118.35586 7282 ft 284 kts 92°
2026-05-04 23:11 33.51914 -118.33243 6940 ft 283 kts 79°
2026-05-04 23:12 33.52527 -118.31050 6645 ft 272 kts 68°
2026-05-04 23:12 33.53191 -118.28968 6449 ft 263 kts 68°
2026-05-04 23:12 33.53834 -118.26934 6144 ft 259 kts 69°
2026-05-04 23:12 33.54469 -118.24939 5874 ft 254 kts 67°
2026-05-04 23:13 33.55208 -118.23035 5748 ft 251 kts 65°
2026-05-04 23:13 33.55805 -118.21060 5559 ft 252 kts 69°
2026-05-04 23:13 33.56379 -118.19054 5209 ft 259 kts 71°
2026-05-04 23:13 33.57062 -118.17056 5035 ft 255 kts 57°
2026-05-04 23:14 33.58049 -118.15332 5017 ft 246 kts 54°
2026-05-04 23:14 33.59000 -118.13680 4934 ft 234 kts 54°
2026-05-04 23:14 33.59915 -118.12073 4930 ft 234 kts 54°
2026-05-04 23:14 33.60834 -118.10447 4966 ft 236 kts 54°
2026-05-04 23:15 33.61745 -118.08828 5009 ft 238 kts 54°
2026-05-04 23:15 33.62675 -118.07164 5016 ft 236 kts 54°
2026-05-04 23:15 33.63572 -118.05554 4982 ft 238 kts 54°
2026-05-04 23:15 33.64508 -118.03872 4980 ft 239 kts 54°
2026-05-04 23:16 33.65416 -118.02242 5004 ft 238 kts 54°
2026-05-04 23:16 33.66352 -118.00556 5018 ft 240 kts 54°
2026-05-04 23:16 33.67276 -117.98896 5017 ft 240 kts 54°
2026-05-04 23:16 33.68199 -117.97235 4993 ft 239 kts 55°
2026-05-04 23:17 33.69110 -117.95594 4998 ft 237 kts 55°
2026-05-04 23:17 33.70078 -117.93993 4907 ft 238 kts 42°
2026-05-04 23:17 33.71437 -117.92913 4586 ft 234 kts 19°
2026-05-04 23:17 33.72904 -117.92238 4545 ft 217 kts 19°
2026-05-04 23:18 33.74258 -117.91510 4320 ft 211 kts 22°
2026-05-04 23:18 33.75602 -117.90736 3928 ft 212 kts 25°
2026-05-04 23:18 33.76915 -117.89952 3600 ft 214 kts 25°
2026-05-04 23:18 33.78187 -117.89028 3283 ft 215 kts 39°
2026-05-04 23:19 33.79091 -117.87602 2918 ft 217 kts 70°
2026-05-04 23:19 33.79313 -117.85846 2594 ft 212 kts 98°
2026-05-04 23:19 33.78891 -117.84266 2391 ft 184 kts 125°
2026-05-04 23:19 33.78138 -117.83175 2178 ft 161 kts 144°
2026-05-04 23:20 33.77245 -117.82479 1906 ft 146 kts 163°
2026-05-04 23:20 33.76325 -117.82147 1665 ft 135 kts 180°
2026-05-04 23:20 33.75417 -117.82157 1588 ft 128 kts 194°
2026-05-04 23:20 33.74567 -117.82475 1473 ft 126 kts 210°
2026-05-04 23:21 33.73795 -117.82961 1419 ft 127 kts 208°
2026-05-04 23:21 33.73003 -117.83451 1202 ft 126 kts 208°
2026-05-04 23:21 33.72209 -117.83933 1004 ft 128 kts 211°
2026-05-04 23:21 33.71423 -117.84454 801 ft 142 kts 215°
2026-05-04 23:22 33.70464 -117.85069 665 ft 160 kts 208°
2026-05-04 23:22 33.69486 -117.85645 435 ft 153 kts 210°
2026-05-04 23:22 33.68577 -117.86248 180 ft 142 kts 210°
2026-05-04 23:22 33.67769 -117.86753 51 ft 119 kts 211°
2026-05-04 23:23 33.67366 -117.87012 52 ft 12 kts 206°
2026-05-04 23:23 33.67333 -117.87031 59 ft 14 kts 206°